Location: ?
(35.2180°N, 139.6392°E)
Time: 20:39:28
(UTC+00:00)

Exosat Rocket - Pass Details

Date: 05 August 2024
Orbit: 761 x 2513 km, 72.3° (Epoch: 17 September)

Event Time Altitude Azimuth Distance (km) Brightness Sun altitude
Rises 12:11:40 0° 341° (NNW) 3,228 7.8 -26.2°
Reaches altitude 10° 12:13:55 10° 342° (NNW) 2,306 6.8 -26.6°
Maximum altitude 12:18:56 85° 71° (ENE) 835 3.5 -27.2°
Enters shadow 12:18:58 84° 82° (E) 836 3.5 -27.2°
